This demonstration page uses our WeatherBlox Daily Observations layout. Learn more.

Hourly Observations for April 19, 2019

Temp ( °F °C ) Dew Point ( °F °C ) Humidity (%) Winds ( mph kmh ) Pressure ( in mb ) Visibility ( mi km ) Precip ( " mm )
12:15 am 00:15 Clear 72 22 55 13 57 57 S 14 22 29.8 1009 10 16.09344 0 0
12:35 am 00:35 Clear 72 22 55 13 57 57 S 12 19 29.8 1009 10 16.09344 0 0
12:55 am 00:55 Clear 72 22 57 14 61 61 S 14 22 29.8 1009 10 16.09344 0 0
1:15 am 01:15 Clear 72 22 57 14 61 61 S 16 26 29.8 1009 10 16.09344 0 0
1:35 am 01:35 Clear 72 22 59 15 65 65 S 10 17 29.8 1009 10 16.09344 0 0
1:55 am 01:55 Clear 70 21 59 15 69 69 S 15 24 29.8 1009 10 16.09344 0 0
2:15 am 02:15 Clear 70 21 59 15 69 69 S 13 20 29.8 1009 10 16.09344 0 0
2:35 am 02:35 Partly Cloudy 70 21 59 15 69 69 S 13 20 29.77 1008 10 16.09344 0 0
3:15 am 03:15 Cloudy 70 21 59 15 69 69 S 16 26 29.77 1008 10 16.09344 0 0
3:35 am 03:35 Mostly Cloudy 70 21 59 15 69 69 S 15 24 29.77 1008 10 16.09344 0 0
3:55 am 03:55 Partly Cloudy 70 21 59 15 69 69 S 20 31 29.77 1008 10 16.09344 0 0
4:15 am 04:15 Partly Cloudy 70 21 61 16 73 73 S 13 20 29.77 1008 10 16.09344 0 0
4:35 am 04:35 Partly Cloudy 68 20 61 16 78 78 S 18 30 29.77 1008 10 16.09344 0 0
4:55 am 04:55 Clear 68 20 61 16 78 78 S 18 30 29.77 1008 10 16.09344 0 0
5:15 am 05:15 Clear 68 20 61 16 78 78 S 16 26 29.74 1007 10 16.09344 0 0
5:35 am 05:35 Clear 68 20 61 16 78 78 S 17 28 29.74 1007 10 16.09344 0 0
5:55 am 05:55 Clear 68 20 61 16 78 78 S 16 26 29.74 1007 10 16.09344 0 0
6:15 am 06:15 Clear 68 20 61 16 78 78 S 15 24 29.74 1007 10 16.09344 0 0
6:35 am 06:35 Sunny 66 19 61 16 83 83 S 13 20 29.74 1007 10 16.09344 0 0
6:55 am 06:55 Mostly Cloudy 68 20 63 17 83 83 S 14 22 29.74 1007 10 16.09344 0 0
7:15 am 07:15 Cloudy 68 20 63 17 83 83 S 13 20 29.77 1008 10 16.09344 0 0
7:35 am 07:35 Cloudy 68 20 63 17 83 83 S 14 22 29.77 1008 10 16.09344 0 0
7:55 am 07:55 Cloudy 68 20 63 17 83 83 SSW 12 19 29.77 1008 10 16.09344 0 0
8:15 am 08:15 Cloudy 68 20 63 17 83 83 S 13 20 29.77 1008 10 16.09344 0 0
8:35 am 08:35 Cloudy 68 20 63 17 83 83 SSW 15 24 29.77 1008 10 16.09344 0 0
9:15 am 09:15 Cloudy 70 21 64 18 83 83 S 12 19 29.77 1008 10 16.09344 0 0
9:35 am 09:35 Cloudy 70 21 64 18 83 83 S 12 19 29.77 1008 10 16.09344 0 0
9:55 am 09:55 Cloudy 70 21 64 18 83 83 S 12 19 29.77 1008 10 16.09344 0 0
10:15 am 10:15 Cloudy 70 21 64 18 83 83 S 10 17 29.74 1007 10 16.09344 0 0
10:35 am 10:35 Cloudy 70 21 64 18 83 83 S 13 20 29.74 1007 10 16.09344 0 0
10:55 am 10:55 Cloudy 72 22 64 18 78 78 S 10 17 29.74 1007 10 16.09344 0 0
11:15 am 11:15 Cloudy 72 22 64 18 78 78 S 13 20 29.74 1007 10 16.09344 0 0
11:35 am 11:35 Cloudy 72 22 64 18 78 78 S 9 15 29.74 1007 10 16.09344 0 0
11:55 am 11:55 Cloudy 73 23 64 18 74 74 S 17 28 29.74 1007 10 16.09344 0 0
12:10 pm 12:10 Cloudy 73 23 66 19 78 78 S 12 19 29.74 1007 10 16.09344 0 0
12:35 pm 12:35 Cloudy 73 23 66 19 78 78 S 17 28 29.71 1006 10 16.09344 0 0
12:55 pm 12:55 Cloudy 73 23 66 19 78 78 S 20 31 29.71 1006 10 16.09344 0 0
1:15 pm 13:15 Mostly Cloudy 73 23 68 20 83 83 SSE 14 22 29.71 1006 10 16.09344 0 0
1:35 pm 13:35 Mostly Cloudy 73 23 68 20 83 83 SSE 12 19 29.68 1005 10 16.09344 0 0
1:55 pm 13:55 Mostly Cloudy 70 21 68 20 94 94 SSE 10 17 29.68 1005 4 6.437376 0 0
2:15 pm 14:15 Cloudy 70 21 68 20 94 94 SSE 15 24 29.68 1005 7 11.265408 0 0
2:35 pm 14:35 Cloudy 68 20 68 20 100 100 S 13 20 29.68 1005 4 6.437376 0 0
2:55 pm 14:55 Cloudy 68 20 68 20 100 100 SSE 13 20 29.65 1004 2 3.218688 0 0
3:15 pm 15:15 Cloudy 68 20 68 20 100 100 SSE 13 20 29.65 1004 5 8.04672 0 0
3:55 pm 15:55 Cloudy 68 20 68 20 100 100 SSE 17 28 29.62 1003 5 8.04672 0 0
4:15 pm 16:15 Cloudy 68 20 68 20 100 100 S 18 30 29.62 1003 5 8.04672 0 0
4:35 pm 16:35 Cloudy 70 21 68 20 94 94 SSE 12 19 29.59 1002 10 16.09344 0 0
4:55 pm 16:55 Cloudy 70 21 68 20 94 94 SSE 13 20 29.59 1002 10 16.09344 0 0
5:15 pm 17:15 Cloudy 70 21 68 20 94 94 S 12 19 29.59 1002 10 16.09344 0 0
5:40 pm 17:40 Cloudy 70 21 68 20 94 94 S 7 11 29.59 1002 10 16.09344 0 0
5:55 pm 17:55 Cloudy 70 21 68 20 94 94 S 16 26 29.59 1002 4 6.437376 0 0
6:15 pm 18:15 Cloudy 70 21 68 20 94 94 SSE 15 24 29.59 1002 7 11.265408 0 0
6:35 pm 18:35 Cloudy 70 21 68 20 94 94 SSE 8 13 29.59 1002 10 16.09344 0 0
6:55 pm 18:55 Cloudy 70 21 68 20 94 94 SSE 8 13 29.59 1002 10 16.09344 0 0
7:15 pm 19:15 Cloudy 72 22 68 20 88 88 S 18 30 29.59 1002 10 16.09344 0 0
7:35 pm 19:35 Cloudy 70 21 68 20 94 94 SSE 13 20 29.59 1002 10 16.09344 0 0
7:55 pm 19:55 Cloudy 70 21 68 20 94 94 S 10 17 29.59 1002 7 11.265408 0 0
8:15 pm 20:15 Cloudy 68 20 68 20 100 100 SSW 10 17 29.59 1002 4 6.437376 0 0
8:30 pm 20:30 Cloudy 66 19 66 19 100 100 SW 5 7 29.59 1002 1.5 2.414016 0 0
8:55 pm 20:55 Cloudy 64 18 64 18 100 100 SSW 16 26 29.59 1002 1.5 2.414016 0 0
9:15 pm 21:15 Cloudy 64 18 64 18 100 100 S 9 15 29.59 1002 10 16.09344 0 0
9:35 pm 21:35 Mostly Cloudy 64 18 64 18 100 100 SSE 12 19 29.59 1002 10 16.09344 0 0
9:55 pm 21:55 Partly Cloudy 64 18 64 18 100 100 S 14 22 29.59 1002 10 16.09344 0 0
10:15 pm 22:15 Mostly Cloudy 63 17 63 17 100 100 SSE 10 17 29.59 1002 10 16.09344 0 0
10:35 pm 22:35 Cloudy 63 17 63 17 100 100 S 7 11 29.59 1002 10 16.09344 0 0
10:55 pm 22:55 Cloudy 63 17 63 17 100 100 SSE 5 7 29.59 1002 10 16.09344 0 0
11:15 pm 23:15 Cloudy 63 17 63 17 100 100 SSE 7 11 29.59 1002 10 16.09344 0 0
11:35 pm 23:35 Cloudy 63 17 63 17 100 100 SE 5 7 29.59 1002 10 16.09344 0 0
11:55 pm 23:55 Cloudy 64 18 64 18 100 100 SSE 8 13 29.59 1002 10 16.09344 0 0

Powered by AerisWeather